Home > Weather > Chico > Past weeks

Flag for USA Past Weather in Chico, California, USA — Yesterday and Last 2 Weeks

Now
86 °F

Passing clouds.


Feels Like: 83 °F
Forecast: 64 / 91 °F
Wind: 7 mph from Southwest

Location: Chico Municipal

Current Time: May 29, 2016 at 2:16:12 PM

Latest Report: May 29, 2016 at 12:59 PM


Visibility: 40 mi

Pressure: 29.92 "Hg

Humidity: 25%

Dew Point: 46 °F

Location of ChicoLocation

Past Weather in Chico — Graph

°F

Chico Temperature Yesterday

Maximum temperature yesterday: 88 °F (at 3:45 PM)
Minimum temperature yesterday: 61 °F (at 5:15 AM)
Average temperature yesterday: 74 °F

High & Low Weather Summary for the Past Weeks

 TemperatureHumidityPressure
High93 °F (May 18, 2:50 PM)100% (May 25, 1:35 AM)30.10 "Hg (May 25, 1:35 AM)
Low50 °F (May 22, 4:35 AM)11% (May 27, 4:50 PM)29.63 "Hg (May 19, 7:55 PM)
Average68 °F47%29.91 "Hg
* Reported May 14 12:47 PM — May 29 12:59 PM, Chico, Weather by CustomWeather, © 2016

Note: Actual official high and low records may vary slightly from our data, if they occured in-between our weather recording intervals... More about our weather records

Advertising

Chico Weather History for the Previous 24 Hours

Scroll right to see more
 ConditionsComfort  
Time TempWeatherWind HumidityBarometerVisibility
12:59 PM
Sun, May 29
86 °FPassing clouds.7 mph25%29.92 "Hg40 mi
11:56 AM82 °FPassing clouds.7 mph32%29.93 "Hg40 mi
10:45 AM79 °FSunny.9 mph34%29.94 "Hg40 mi
9:51 AM75 °FPassing clouds.7 mph36%29.95 "Hg40 mi
8:50 AM73 °FPassing clouds.No wind38%29.94 "Hg40 mi
7:55 AM66 °FPassing clouds.No wind52%29.94 "Hg40 mi
6:55 AM64 °FSunny.No wind52%29.92 "Hg20 mi
5:35 AM59 °FClear.No wind68%29.90 "Hg10 mi
5:15 AM63 °FClear.No wind59%29.90 "Hg10 mi
4:55 AM63 °FClear.No wind56%29.89 "Hg10 mi
4:15 AM68 °FClear.No wind43%29.88 "Hg10 mi
3:55 AM66 °FClear.No wind46%29.88 "Hg10 mi
3:15 AM64 °FClear.No wind49%29.88 "Hg10 mi
2:55 AM63 °FClear.No wind56%29.88 "Hg10 mi
2:35 AM66 °FClear.No wind49%29.87 "Hg10 mi
2:15 AM66 °FClear.No wind49%29.87 "Hg10 mi
1:55 AM68 °FClear.No wind43%29.87 "Hg10 mi
1:15 AM72 °FClear.No wind38%29.86 "Hg10 mi
12:55 AM72 °FClear.No wind38%29.86 "Hg10 mi
12:35 AM72 °FClear.No wind38%29.85 "Hg10 mi
12:15 AM72 °FClear.No wind38%29.85 "Hg10 mi
11:55 PM
Sat, May 28
70 °FClear.No wind43%29.85 "Hg10 mi
11:35 PM72 °FClear.No wind41%29.85 "Hg10 mi
11:15 PM73 °FClear.No wind36%29.85 "Hg10 mi
10:55 PM73 °FClear.No wind36%29.85 "Hg10 mi
10:15 PM75 °FClear.No wind34%29.84 "Hg10 mi
9:55 PM77 °FClear.No wind34%29.83 "Hg10 mi
9:15 PM81 °FSunny.No wind30%29.82 "Hg10 mi
8:55 PM81 °FSunny.No wind30%29.81 "Hg10 mi
8:15 PM82 °FSunny.No wind28%29.80 "Hg10 mi
7:55 PM84 °FSunny.7 mph27%29.80 "Hg10 mi
7:35 PM84 °FSunny.No wind23%29.79 "Hg10 mi
7:15 PM86 °FSunny.9 mph22%29.79 "Hg10 mi
6:55 PM86 °FSunny.9 mph20%29.78 "Hg10 mi
6:35 PM86 °FSunny.10 mph22%29.78 "Hg10 mi
6:15 PM88 °FSunny.8 mph18%29.78 "Hg10 mi
5:55 PM88 °FSunny.9 mph18%29.78 "Hg10 mi
4:54 PM88 °FPassing clouds.12 mph17%29.78 "Hg25 mi
3:45 PM88 °FPassing clouds.12 mph18%29.80 "Hg25 mi
2:47 PM86 °FPassing clouds.12 mph19%29.82 "Hg25 mi
Weather by CustomWeather, © 2016

See weather overviewHow to use our weather pages